This is the latest recevied weather packets stored in our database for station/object AD0YN. If no packets are shown the sender has not sent any weather packets the latest 10 day(s).
| Time | Temp. | Humidity | Pressure | Rain* | Wind** | Luminosity | Snow |
|---|---|---|---|---|---|---|---|
| 1778133221 | 8.89° C | 55% | 1017 hPa | 0 mm | - | 0 W/m² | - |
| 1778132918 | 8.89° C | 58% | 1017 hPa | 0 mm | - | 0 W/m² | - |
| 1778132614 | 8.89° C | 56% | 1017 hPa | 0 mm | - | 0 W/m² | - |
| 1778132312 | 8.89° C | 57% | 1017 hPa | 0 mm | - | 0 W/m² | - |
| 1778132010 | 8.89° C | 59% | 1016.9 hPa | 0 mm | - | 0 W/m² | - |
| 1778131708 | 8.89° C | 57% | 1016.8 hPa | 0 mm | - | 0 W/m² | - |
| 1778131404 | 8.89° C | 55% | 1017 hPa | 0 mm | - | 0 W/m² | - |
| 1778131102 | 8.89° C | 57% | 1016.9 hPa | 0 mm | - | 0 W/m² | - |
| 1778130800 | 8.89° C | 53% | 1017 hPa | 0 mm | - | 0 W/m² | - |
| 1778130496 | 8.89° C | 53% | 1016.9 hPa | 0 mm | - | 0 W/m² | - |
| 1778130192 | 8.89° C | 53% | 1017.2 hPa | 0 mm | - | 0 W/m² | - |
| 1778129890 | 8.89° C | 56% | 1017.1 hPa | 0 mm | - | 0 W/m² | - |
| 1778129586 | 8.89° C | 55% | 1016.9 hPa | 0 mm | - | 0 W/m² | - |
| 1778129283 | 8.89° C | 54% | 1017.1 hPa | 0 mm | - | 0 W/m² | - |
| 1778128980 | 8.89° C | 54% | 1017.1 hPa | 0 mm | - | 0 W/m² | - |
| 1778128676 | 8.89° C | 59% | 1017.3 hPa | 0 mm | - | 0 W/m² | - |
| 1778128372 | 8.89° C | 58% | 1017.3 hPa | 0 mm | - | 0 W/m² | - |
| 1778128069 | 8.89° C | 52% | 1017.2 hPa | 0 mm | - | 0 W/m² | - |
| 1778127764 | 8.89° C | 53% | 1017.2 hPa | 0 mm | - | 0 W/m² | - |
| 1778127462 | 8.89° C | 54% | 1017 hPa | 0 mm | - | 0 W/m² | - |
| 1778127158 | 8.89° C | 53% | 1017.2 hPa | 0 mm | - | 0 W/m² | - |
| 1778126855 | 7.78° C | 57% | 1017.3 hPa | 0 mm | - | 0 W/m² | - |
| 1778126551 | 6.67° C | 68% | 1017.4 hPa | 0 mm | - | 0 W/m² | - |
| 1778126247 | 6.67° C | 69% | 1017.3 hPa | 0 mm | - | 0 W/m² | - |
| 1778125943 | 6.67° C | 70% | 1017.3 hPa | 0 mm | - | 0 W/m² | - |
* Rain latest hour (hover to see other rain measurements)
** Current wind speed in m/s (hover to see current wind gust speed)